STARLINK-4095, 53170

Orbit data source: Space-Track

STARLINK-4095, 53170 is a payload satellite owned by SpaceX/Seattle (US) in LEO that was launched on Sun, 17 Jul 2022 UTC via an FALCON 9 launch vehicle from the Air Force Eastern Test Range (AFETR). Payload-class satellites include a variety of spacecraft equipped with specific instruments for various scientific and technological missions. These include communications satellites like Starlink; space stations such as the ISS; scientific satellites like the Hubble; Earth observation satellites from companies like Planet Labs, Umbra, and HawkEye 360; GPS; miniature CubeSats for education and research; and military/defense satellites.

Loading next visibility...
Identifier
53170, 2022-083AQ
Orbit
LEO
Country
Flag of USUS
Related business
Manufacturer
SpaceX/Seattle
Mission
Operational Commercial Communications
Bus & Motor
STARLINK, Unknown motor
Mass
297 kg wet, ~275 kg dry
Launch date (UTC)
2022-07-17 (4 years ago)
Launch vehicle
FALCON 9
Launch site
Air Force Eastern Test Range (AFETR)
Object type
Payload
Rocket body
Debris
Shape & HBR
Box + 1 Pan, 10.1 m
Radar Cross Section
13.562 m², Large (>1 m²)

Expand to show TLE details & history
Last TLE update: 2 days ago

TLE from 2 days ago
0 STARLINK-4095
1 53170U 22083AQ  26171.39047191  .00000109  00000-0  24945-4 0  9990
2 53170  53.1617  57.9188 0001402  97.0566 263.0585 15.08832443216937
Epoch: 2026-06-20T09:22Z
TLE epoch observation values (Epoch: 2026-06-20T09:22:16.773Z)
Latitude
0.00001°
Longitude
8.74314°
Altitude
540.775 km
Speed
7.593 km/s
True Right ascension
03h 51m 40s
True Declination
0° 00' 00"
Sunlit
Object was in daylight at epoch
Visualization orbit readout
Latitude
Unknown
Longitude
Unknown
Altitude
Unknown
Speed
Unknown
Apparent Right ascension
Unknown
Apparent Declination
Unknown
Sunlit
N/A
Visualization observer readout
Local Sidereal Time
23:07:33
Azimuth
Unknown
Elevation
Unknown
Doppler factor
Unknown
Orbital elements
Apogee altitude
540.99 km
Perigee altitude
539.05 km
Semi-major axis
6,918.157 km
Eccentricity
0.00014
Inclination
53.1617°
RAAN
57.9188°
Arg. of periapsis
97.0566°
True anomaly
263.04255°
Mean anomaly
263.0585°
Eccentric anomaly
263.05053°
Mean motion
3.77188 °/min
Orbital period
95.44 mins
BSTAR
0.000024945
Loading maneuver chart data...
Computing Atmospheric mass density...

Documentation

Showing up to 5 results
|